Wind_Speed
15 18 21 25 28 28 29 30 33 35 31 24 20 20 22 24 29 31 32 36 33 26 29 39 52 56 52 51 48 44 48 47 42 41 40 41 42 41 38 37 37 35 32 33 34 32 32 32 30 28 28 28 27 26 23 22 20 20 20 19 20 21 22 20 17 16 15 13 12 11 11 11 10 9 8 9 11 12 12 13 14 14 14 12 11 11
14 19 23 25 25 25 24 25 28 31 30 28 26 24 22 22 25 28 30 34 34 28 27 31 45 58 56 52 51 47 48 48 46 45 44 42 41 41 40 39 39 34 31 36 39 37 36 36 33 30 30 30 29 27 24 22 20 20 22 23 23 24 24 23 18 16 15 13 13 13 13 12 11 10 9 10 12 13 14 15 15 14 14 13 12 11
16 21 23 23 23 23 22 22 24 26 26 27 29 28 28 28 27 27 29 33 32 27 29 32 36 50 56 54 52 48 49 51 50 49 48 46 44 44 43 40 38 35 33 37 39 38 39 38 35 32 31 30 29 28 25 22 21 22 24 25 25 25 25 23 20 17 15 15 14 14 14 13 12 11 10 11 13 14 15 15 15 15 14 13 13 13
16 20 19 20 22 23 23 24 24 23 23 24 27 28 32 33 29 27 28 29 31 27 27 35 38 41 46 52 56 51 47 49 50 49 47 44 44 45 46 45 40 37 36 36 36 39 41 38 37 35 33 31 30 30 28 25 24 24 25 25 23 23 24 22 20 18 17 17 17 16 16 14 13 12 11 12 13 14 14 14 14 15 15 14 14 14
19 19 15 16 18 21 24 24 23 22 22 22 25 28 32 35 30 30 30 25 29 31 27 30 37 41 40 42 51 54 51 48 48 49 46 43 41 41 45 46 44 41 39 38 36 37 42 40 38 38 36 34 32 32 31 27 25 26 26 23 19 20 21 22 21 19 18 18 19 18 17 15 14 13 11 10 10 11 12 12 12 14 15 16 15 14
22 19 15 15 16 17 20 21 21 20 21 22 23 26 30 33 29 27 28 25 24 29 32 26 22 33 41 39 45 53 55 54 50 50 50 49 46 44 47 47 44 43 43 43 39 36 39 40 41 42 40 37 34 32 30 27 25 26 26 23 19 19 21 23 24 22 20 20 20 19 17 15 14 13 12 10 9 9 10 10 12 14 16 17 16 14
22 18 15 17 17 18 18 20 20 17 20 24 23 23 25 29 29 25 25 24 21 23 34 30 13 16 29 34 40 48 54 57 56 53 51 52 50 48 51 51 46 44 46 46 40 36 36 39 43 44 42 39 34 30 29 28 27 27 27 26 23 22 23 24 25 24 24 23 21 20 18 16 14 14 12 11 11 11 12 12 14 16 16 16 15 14
22 17 15 15 17 21 22 23 21 16 19 24 21 19 20 23 26 26 25 24 25 28 34 34 22 14 17 24 31 39 48 55 57 56 54 54 53 50 52 56 52 48 49 47 41 36 36 40 45 44 41 38 32 29 30 29 29 29 28 26 25 25 25 25 25 26 26 24 23 21 19 16 15 15 13 13 13 14 15 15 16 16 16 15 14 14
21 18 17 15 15 20 24 27 23 17 19 21 18 16 19 20 21 24 25 24 28 29 30 38 32 13 9 20 26 28 40 53 56 58 57 56 55 53 53 57 57 52 49 49 44 38 36 40 45 44 39 35 30 29 31 31 30 29 28 26 25 26 27 27 27 27 26 24 24 23 20 17 16 16 15 15 15 16 16 17 17 16 15 14 13 13
25 23 21 20 20 22 25 26 24 19 17 18 17 17 20 20 20 21 21 25 27 20 22 39 37 12 5 21 30 26 31 46 56 59 60 60 57 55 55 55 55 53 51 50 47 40 35 37 41 41 37 33 31 30 32 32 31 30 29 27 26 27 28 28 28 27 26 25 26 25 21 18 17 16 16 16 16 16 16 16 16 15 14 14 13 13
30 29 28 27 27 26 25 24 23 20 17 19 19 19 21 21 23 24 23 25 21 11 20 40 43 21 7 17 31 31 31 38 49 58 61 61 60 57 57 56 55 55 55 53 50 42 36 34 34 35 35 33 31 32 33 33 31 31 31 29 28 30 30 30 29 28 26 26 26 25 22 19 17 17 16 16 16 15 15 15 15 14 14 14 13 14
32 32 33 33 30 27 26 26 25 21 19 21 19 17 17 18 22 22 22 22 11 6 21 39 43 29 14 20 30 34 39 39 41 51 58 59 61 61 59 58 57 57 55 54 51 46 41 38 35 33 34 34 32 32 32 32 32 33 34 32 31 32 32 31 30 29 28 27 27 25 23 20 18 17 17 17 16 15 15 15 15 15 15 15 14 14
36 37 36 34 31 28 27 26 27 25 24 23 20 17 11 8 12 11 10 11 7 11 26 36 36 26 20 30 36 35 44 47 40 42 51 55 59 61 59 58 58 56 53 52 50 46 44 44 41 38 37 36 35 34 34 34 35 36 36 35 34 34 33 32 31 30 28 27 26 25 24 21 18 17 18 17 16 16 16 17 17 17 16 15 14 14
29 33 35 35 32 30 27 27 29 28 28 27 23 19 12 5 4 4 5 5 6 15 29 38 31 19 18 29 36 37 41 46 46 43 46 51 55 57 57 56 57 56 52 50 49 46 45 44 43 42 40 38 38 37 37 39 38 38 39 37 35 35 34 33 32 31 29 27 26 26 25 21 19 18 18 17 16 16 17 18 18 18 17 15 14 15
19 20 23 27 27 24 26 31 33 31 30 28 20 15 17 16 8 3 4 4 6 11 25 34 21 8 14 20 29 39 37 37 45 47 46 48 51 53 54 54 55 56 54 51 50 48 46 45 43 44 43 41 39 39 39 41 40 41 42 38 35 36 35 34 33 31 29 28 26 27 26 22 19 20 19 18 18 18 18 19 19 19 17 15 15 15
18 17 14 14 14 13 18 25 30 31 28 23 18 15 20 24 20 12 8 9 10 6 13 23 15 9 18 19 23 37 39 34 35 41 48 50 51 52 54 56 55 53 54 52 50 50 49 46 43 42 44 42 40 41 42 41 40 43 43 38 35 37 35 34 33 30 29 27 27 28 27 22 20 21 20 19 19 19 19 19 20 20 18 16 16 16
12 15 12 11 11 12 14 15 20 27 22 14 13 13 14 19 23 19 14 15 13 3 4 13 16 21 28 25 28 35 37 36 31 32 43 51 53 55 55 56 54 50 51 51 50 51 49 46 42 41 44 42 41 44 44 41 41 43 44 40 37 37 36 34 32 31 30 28 27 29 26 22 22 23 21 19 19 19 20 21 21 20 19 17 17 16
10 14 14 12 13 13 14 14 17 21 20 16 14 9 6 10 20 22 13 9 6 1 4 8 13 23 25 23 33 37 33 34 32 30 37 45 52 58 58 55 52 51 49 47 47 47 46 44 43 43 43 42 43 46 44 41 39 40 41 39 37 37 36 33 32 31 30 28 28 29 26 23 24 23 21 20 20 20 21 21 21 20 19 18 17 16
12 14 14 14 13 12 14 17 19 19 20 20 16 10 7 6 13 20 14 5 3 1 3 7 11 22 27 24 28 35 36 34 34 34 36 40 46 54 58 53 49 51 50 46 45 43 43 44 43 44 44 43 46 47 44 41 38 36 37 36 37 37 35 32 31 31 29 28 29 29 25 24 25 24 21 21 21 22 22 21 20 20 19 18 17 16
12 11 12 11 9 8 12 19 22 21 21 20 17 16 17 14 11 14 15 9 4 2 1 5 6 12 24 29 26 30 35 34 34 35 37 41 44 48 54 52 47 48 50 50 47 43 44 47 45 45 44 44 47 47 44 42 40 36 34 35 36 37 35 33 33 32 30 29 30 29 26 26 27 24 22 22 22 23 22 21 20 20 20 19 17 17
13 14 14 13 9 8 10 17 21 21 19 18 21 21 19 17 12 10 12 11 6 3 2 2 3 6 14 23 27 32 36 36 34 32 32 40 48 48 50 52 50 47 48 52 51 45 45 48 47 47 46 45 47 47 45 44 43 37 33 34 37 38 36 35 35 34 31 30 31 29 27 28 28 25 23 23 23 23 23 21 21 21 20 19 18 18
15 17 19 20 18 17 11 14 19 22 20 15 16 19 17 17 15 8 5 8 8 6 6 4 5 11 11 11 18 31 37 38 38 36 30 32 42 50 52 52 53 51 50 51 50 48 46 47 47 48 47 46 47 46 44 45 46 40 35 36 38 38 37 36 36 34 33 32 31 29 29 30 29 25 23 24 24 24 23 21 21 21 20 19 18 19
17 17 19 23 26 20 8 14 18 22 22 15 12 13 14 14 17 12 3 2 4 6 9 6 6 15 17 11 11 22 24 23 28 35 37 31 32 44 51 52 53 54 54 52 49 47 45 45 47 48 47 48 47 45 45 45 43 39 37 38 39 39 38 37 36 34 33 33 31 30 31 32 30 26 24 24 24 24 23 21 20 20 20 19 19 20
16 17 17 21 22 14 7 17 21 21 20 17 13 11 12 14 16 16 8 5 5 8 9 3 4 18 24 16 13 18 14 16 19 27 40 35 28 32 42 49 51 51 55 56 54 50 45 44 47 46 45 46 46 46 46 42 38 36 38 40 40 38 37 37 36 35 34 33 32 32 34 33 30 27 25 25 24 23 22 20 20 20 20 19 20 21
12 15 15 12 11 3 7 13 17 19 17 14 12 10 11 13 14 15 12 8 5 8 8 0 6 22 25 18 17 16 13 18 18 22 35 37 28 26 31 42 49 48 50 54 55 53 50 49 48 46 45 44 44 44 41 37 35 35 37 40 40 38 37 38 37 35 34 33 33 35 35 33 31 28 27 25 24 23 22 20 20 20 20 20 21 22
8 12 12 7 3 2 5 9 14 19 17 13 12 10 9 11 13 16 13 8 4 6 9 7 15 27 26 21 22 17 14 21 21 22 33 37 30 27 28 36 46 49 47 48 49 49 50 51 50 46 44 42 42 40 36 33 33 34 37 40 39 38 39 39 38 35 34 34 35 36 35 33 31 29 27 26 24 23 22 21 20 21 21 21 22 22
6 10 10 8 10 7 3 5 12 18 17 14 12 11 11 12 12 14 12 10 7 9 16 21 24 29 27 21 21 17 17 24 25 23 32 40 35 31 28 30 38 44 44 44 44 45 48 49 48 45 43 40 37 35 32 31 32 33 36 39 39 38 40 40 39 36 35 35 35 35 34 33 31 29 28 27 25 23 22 21 21 21 22 22 23 23
7 10 10 8 9 9 3 4 6 10 13 14 11 9 13 16 16 17 17 14 9 9 17 24 22 25 26 20 17 18 20 24 25 21 27 40 37 32 31 28 28 32 36 39 41 43 46 48 46 43 41 38 34 30 29 31 32 33 35 37 38 40 41 41 40 38 36 36 36 35 33 32 31 29 28 27 26 24 22 22 22 22 23 24 25 24
11 13 12 9 7 4 3 5 6 7 10 12 12 10 11 17 20 21 19 16 14 15 20 21 20 27 29 21 16 18 20 22 23 20 24 38 38 33 32 30 27 26 29 33 37 39 41 44 45 43 41 38 33 30 30 32 33 33 35 36 38 40 40 40 40 39 37 36 36 35 33 32 30 28 28 28 27 25 23 23 23 23 24 25 25 25
12 13 13 8 9 10 3 5 6 6 7 9 12 11 9 14 21 23 22 19 20 23 24 22 25 32 28 19 19 19 18 21 21 19 22 34 39 36 34 31 29 28 27 29 34 36 35 37 39 39 38 35 32 31 32 32 33 34 36 37 38 39 40 40 40 40 38 37 36 35 33 32 30 29 29 28 27 26 24 23 23 24 24 25 25 25
9 10 11 9 9 13 7 5 5 7 7 7 9 10 9 12 18 22 24 22 22 24 23 23 28 30 23 19 22 21 19 19 19 17 18 27 38 40 36 32 31 31 28 27 31 33 32 31 31 32 33 31 30 31 31 31 33 34 34 35 36 37 38 40 41 40 39 37 36 35 34 33 31 30 29 29 28 27 25 24 25 25 25 25 26 26
7 8 10 10 12 11 8 7 2 7 10 8 8 10 12 14 17 19 20 19 20 21 21 21 25 23 17 15 18 19 19 18 15 14 14 18 31 39 38 33 32 31 28 24 25 27 29 30 30 30 30 29 29 29 29 31 33 33 31 31 32 34 36 39 40 40 38 36 36 36 35 34 32 31 30 30 29 28 27 26 27 27 26 26 26 26
2 7 10 11 13 12 13 14 2 10 11 8 8 9 12 14 15 17 17 16 18 20 20 21 22 18 12 12 14 15 15 15 13 11 7 5 15 27 34 33 29 27 27 24 24 25 26 28 29 29 28 28 27 26 26 29 31 30 27 26 27 31 34 37 39 40 38 37 37 37 36 35 34 32 31 31 30 30 29 28 28 28 26 26 27 27
1 6 9 10 11 13 19 17 4 10 6 3 3 7 14 16 14 15 15 15 18 21 20 20 20 17 12 12 11 9 9 11 13 9 1 6 1 10 19 23 22 23 25 25 25 26 26 27 27 27 28 26 24 23 24 27 28 27 27 26 27 30 33 36 38 38 38 38 39 39 38 37 35 33 32 32 32 32 31 30 29 28 27 27 28 27
2 7 8 9 11 14 18 13 6 3 2 2 5 5 8 12 9 11 15 16 19 22 21 21 20 15 12 10 7 6 7 8 10 9 3 10 8 5 5 7 14 21 23 23 24 25 25 25 26 28 29 27 24 23 24 25 25 27 30 30 28 28 32 35 37 38 38 39 40 41 41 39 38 35 34 34 34 34 32 31 30 30 29 29 28 26
5 7 9 10 11 12 12 9 3 3 2 1 12 18 9 4 4 7 15 16 18 21 20 20 18 15 14 11 6 5 5 7 9 10 5 8 12 6 6 9 8 17 24 23 24 25 24 24 26 28 30 29 26 24 23 23 24 27 30 31 30 29 30 33 37 39 39 39 40 41 41 41 39 37 36 35 36 35 34 32 32 31 30 29 29 27
6 8 8 9 9 8 10 11 8 4 3 4 12 20 14 8 6 4 13 14 17 21 19 17 16 14 15 15 13 11 9 10 11 8 7 6 12 7 1 7 10 11 18 19 20 25 27 26 27 28 29 29 27 25 23 24 25 28 30 31 31 31 30 31 34 37 39 40 40 40 40 40 39 38 37 36 37 37 35 33 32 32 31 30 29 28
8 9 7 7 8 10 10 10 7 3 3 5 13 17 12 8 6 3 9 13 18 21 18 13 12 12 12 15 18 17 12 12 11 7 7 3 8 6 1 7 8 9 12 12 10 13 18 20 22 26 29 29 29 28 27 26 27 30 31 31 30 31 31 31 31 34 37 39 40 40 40 40 39 38 37 37 37 37 35 33 32 32 32 31 30 29
6 7 6 7 10 11 9 6 4 1 2 9 15 15 12 7 4 6 6 9 16 19 13 8 9 11 12 13 17 18 14 12 12 9 5 2 5 6 1 8 7 5 7 10 9 7 9 13 15 19 25 28 28 28 28 28 30 32 33 31 31 31 31 30 30 31 34 37 39 40 40 39 38 38 38 38 36 35 34 34 32 31 30 31 31 29
5 6 7 9 11 12 11 8 5 5 7 12 16 17 13 6 4 5 3 3 10 15 8 4 7 12 15 15 14 13 13 14 14 10 6 3 3 5 1 6 8 6 6 8 9 6 6 9 10 12 16 21 23 26 29 30 32 32 32 32 32 33 33 32 31 32 34 36 39 40 39 38 38 38 38 38 35 33 33 33 29 27 28 30 30 30
8 6 6 9 10 10 10 9 10 12 13 15 19 18 10 3 6 9 6 4 9 13 8 3 4 6 10 14 14 12 11 13 14 13 12 9 8 7 4 3 5 7 7 7 8 7 7 8 9 10 12 14 17 21 24 27 30 32 32 33 34 35 34 34 35 35 36 37 39 39 38 37 37 38 38 35 31 30 32 30 26 27 30 30 29 30
10 9 7 9 10 9 11 12 12 13 14 18 22 16 4 3 6 10 11 9 9 9 6 6 3 3 3 8 12 14 13 13 14 16 16 15 12 10 9 9 9 10 11 10 9 10 10 10 11 12 13 13 15 16 17 20 23 26 29 32 34 35 35 36 38 38 38 38 39 39 38 38 38 38 36 30 28 29 31 29 26 28 30 28 27 27
11 11 8 10 12 10 10 9 8 10 16 22 24 16 7 5 7 9 9 8 8 7 7 5 2 4 2 3 6 10 14 14 14 15 17 17 15 12 11 12 11 13 15 14 12 11 11 12 12 13 14 15 16 17 19 20 20 22 25 27 29 31 34 37 38 38 39 39 38 37 38 38 37 36 33 29 27 28 29 27 27 27 27 26 25 25
10 10 10 12 12 10 8 8 10 14 18 20 19 18 17 11 6 7 7 5 6 8 9 5 4 6 3 4 4 5 9 12 12 12 12 14 13 12 12 12 11 12 15 16 15 14 12 12 13 15 16 18 19 20 22 24 25 26 27 28 29 31 33 36 38 38 38 38 37 36 38 37 35 34 33 30 27 26 25 24 25 24 23 24 25 26
12 13 15 16 15 13 12 13 15 16 16 16 16 19 19 11 3 6 6 4 5 7 8 7 6 4 5 6 5 6 7 9 9 7 6 7 9 10 12 13 13 12 12 14 14 14 13 13 14 17 19 20 22 24 26 27 28 29 30 31 33 35 36 38 39 37 37 36 35 35 36 34 32 33 32 30 30 29 26 24 23 23 22 23 24 26
16 19 20 20 19 16 13 13 16 16 16 15 15 18 18 8 1 3 4 4 5 6 6 7 8 7 8 9 9 8 9 9 8 6 5 5 6 8 10 11 12 12 11 11 11 12 13 14 15 18 20 22 24 27 28 29 29 29 30 31 33 36 40 40 38 34 34 33 32 32 32 31 32 33 31 29 30 28 24 23 24 24 23 23 23 25
22 23 22 20 20 19 15 16 19 20 18 16 14 17 18 11 4 1 1 4 5 5 6 7 9 11 13 14 14 12 11 12 11 8 7 7 7 8 9 10 11 12 13 13 12 12 13 15 17 19 22 24 27 28 29 29 29 29 29 28 30 36 39 38 35 31 30 30 30 29 30 31 32 34 32 29 28 26 22 22 25 26 24 23 23 23
25 24 22 20 21 21 19 20 21 18 17 17 15 15 16 13 8 4 3 2 3 5 6 6 7 9 11 11 13 14 13 13 13 11 10 9 8 9 10 10 10 10 11 12 12 13 15 17 19 21 24 25 28 28 28 28 28 28 27 25 26 29 30 30 31 29 27 26 27 26 27 29 31 33 33 32 30 27 24 24 26 26 23 23 23 22
22 21 21 21 21 21 21 23 23 20 17 16 14 13 13 12 8 6 5 4 3 4 8 7 6 6 5 3 6 9 11 12 13 13 13 13 12 11 11 11 11 11 11 12 14 15 17 20 21 23 24 25 26 26 25 25 26 24 22 21 20 21 22 24 26 26 24 24 24 24 24 25 27 29 31 31 30 27 25 26 27 25 23 22 23 23
18 17 18 19 19 22 24 25 25 23 21 17 13 13 14 12 9 6 4 5 5 1 6 4 2 2 1 4 7 7 5 6 9 10 11 13 14 14 14 14 14 14 14 16 17 19 21 22 22 22 22 22 21 21 21 22 22 19 15 15 17 19 21 24 26 26 23 21 22 23 21 20 21 24 26 29 30 29 28 27 26 25 24 24 24 23
16 15 16 16 19 22 26 26 24 22 20 17 14 13 14 14 11 8 5 6 7 4 4 4 6 6 5 8 11 11 10 8 4 3 6 9 11 14 15 16 16 17 17 18 20 21 22 21 20 18 17 16 16 17 18 19 19 14 9 10 16 18 21 23 23 23 23 22 20 20 18 16 16 20 23 26 27 26 25 25 25 24 24 23 23 22
Wind_Direction
222 228 229 231 235 235 234 233 235 238 238 238 239 240 241 244 244 238 234 228 221 232 236 225 226 229 227 229 228 224 226 232 231 224 222 223 227 233 240 243 246 253 246 227 225 231 231 231 230 235 241 245 251 250 250 258 269 282 288 284 279 280 284 283 271 261 259 258 255 256 263 271 279 288 281 266 262 260 260 261 258 254 249 244 242 243
219 229 231 233 240 242 242 240 239 242 243 244 242 242 244 243 245 240 234 227 221 234 241 227 230 231 227 227 228 225 222 226 229 227 223 220 223 231 237 241 244 252 245 228 229 232 230 228 226 232 243 248 252 252 253 260 268 275 281 286 282 274 278 284 274 262 259 259 257 255 259 266 275 285 280 266 260 255 253 255 255 252 249 247 245 243
228 231 233 234 239 242 244 242 241 244 246 247 244 248 249 243 245 244 237 228 220 232 239 228 234 236 230 227 227 226 222 222 225 229 229 226 226 230 235 240 242 245 239 230 232 233 229 227 225 230 241 248 252 252 250 254 263 271 281 288 282 272 275 280 274 266 265 261 257 255 256 263 272 278 274 263 257 253 252 253 253 251 249 249 248 246
240 236 237 240 242 245 247 244 243 248 249 247 243 246 247 241 246 249 242 232 222 230 240 233 239 244 236 230 229 228 225 223 223 226 230 230 231 231 233 237 239 238 236 234 236 232 226 226 228 232 238 243 248 249 249 253 262 270 280 286 281 275 274 273 271 268 265 259 256 255 255 261 271 274 271 264 258 257 255 257 258 254 252 252 252 250
245 241 242 243 241 244 249 248 248 251 253 251 244 243 245 242 245 249 246 240 228 227 231 236 245 247 240 233 231 229 227 225 223 223 225 226 227 228 228 232 236 236 232 233 239 233 225 227 233 236 236 237 243 251 252 255 264 269 275 280 280 276 269 265 269 270 266 263 260 259 259 263 271 273 272 267 260 261 262 264 263 257 252 251 254 253
252 251 253 247 243 242 250 254 252 257 261 259 251 244 245 244 245 249 250 249 248 238 225 230 251 245 238 235 230 228 227 226 223 221 223 224 226 228 226 227 232 233 231 235 242 238 231 235 237 237 235 232 237 248 252 255 262 266 268 270 274 274 268 265 270 273 274 273 267 262 260 263 268 270 269 259 248 251 255 255 253 251 248 249 253 252
259 259 259 254 253 248 252 256 251 259 268 264 256 246 246 248 246 245 246 245 254 248 223 222 252 253 241 238 231 228 227 227 226 222 222 225 229 230 226 226 230 230 230 235 241 241 241 242 238 235 234 231 235 246 251 254 258 263 265 266 269 272 268 265 268 272 277 278 272 264 258 259 264 266 264 253 241 239 241 243 246 248 248 250 252 251
259 265 266 263 262 255 252 250 244 251 266 263 257 252 252 253 247 242 244 242 245 248 234 231 252 276 258 239 229 228 227 227 229 226 223 224 230 229 222 222 228 230 229 233 238 239 242 242 236 234 234 234 239 246 250 252 257 262 263 263 267 269 265 262 264 269 275 279 277 267 256 255 260 262 260 249 241 239 239 242 246 250 252 251 250 250
264 270 271 273 272 261 251 243 239 248 264 261 257 262 260 256 253 247 246 247 246 250 248 245 249 264 264 234 223 226 226 224 227 227 224 221 224 226 221 221 226 230 230 233 237 238 241 239 232 232 235 237 243 248 250 253 256 260 259 261 268 268 263 261 261 265 272 278 279 268 254 251 255 258 257 249 245 246 245 247 250 253 254 250 250 252
267 269 270 269 264 257 250 243 240 245 255 255 254 264 265 257 254 249 247 250 248 246 249 248 246 245 267 240 228 226 227 222 222 225 223 219 218 220 221 222 226 230 232 235 237 238 239 236 231 232 236 240 244 247 250 251 253 256 255 260 269 268 263 261 260 264 270 276 278 269 253 248 251 255 256 252 250 250 249 249 253 256 254 251 253 254
261 263 264 261 257 255 254 249 242 238 240 244 248 255 263 260 252 248 248 249 247 242 241 245 246 243 257 252 232 224 227 224 220 222 222 221 220 220 223 225 227 230 233 236 238 237 235 232 230 234 236 237 239 243 246 249 252 253 254 260 268 268 263 261 259 263 269 275 277 268 251 245 250 253 254 253 253 253 250 250 252 254 252 250 253 254
256 256 256 256 257 257 259 255 242 231 227 236 244 250 260 259 248 246 247 241 236 248 241 241 246 244 236 248 237 219 221 226 224 223 223 222 222 223 225 226 228 231 234 237 239 238 235 231 230 234 233 231 234 240 246 250 251 252 255 260 265 266 264 261 259 262 270 275 275 265 247 241 247 248 250 253 252 251 246 245 246 246 245 247 251 252
259 256 254 254 256 255 256 255 244 229 221 231 244 246 253 248 232 234 238 229 217 242 241 237 242 245 239 248 244 221 216 223 227 228 226 224 223 224 225 225 228 232 234 236 237 238 237 233 233 236 233 231 235 243 249 250 250 253 256 258 262 266 265 261 259 262 270 274 273 261 244 239 242 244 247 250 249 246 241 238 239 240 241 244 247 247
267 264 257 252 252 250 247 246 241 227 217 227 239 238 232 209 202 214 206 214 224 236 239 238 241 247 245 252 247 225 214 218 224 228 229 228 225 223 223 225 229 232 234 236 235 237 238 235 236 239 236 236 241 247 253 253 250 253 256 255 259 263 263 259 257 262 269 272 269 255 240 236 238 240 244 247 246 244 238 235 235 237 240 242 243 243
264 270 260 246 246 247 242 239 234 223 216 222 230 241 239 224 215 220 188 182 213 229 235 234 235 236 232 246 244 228 215 213 220 223 226 230 230 223 221 227 231 233 235 237 236 238 238 237 239 240 238 240 244 248 253 254 253 255 255 255 257 260 260 259 257 262 268 270 262 248 236 233 233 236 241 242 242 240 236 233 234 237 239 241 243 244
247 258 253 233 237 242 241 241 233 226 224 225 232 251 249 232 226 238 238 222 220 228 233 227 224 234 239 248 246 232 224 220 221 221 222 227 229 226 225 229 234 236 236 237 239 241 240 240 240 238 236 239 243 246 249 253 258 258 256 256 258 257 257 256 256 262 268 265 255 241 232 229 229 234 238 238 238 239 236 234 235 237 239 241 243 245
234 252 250 235 240 229 224 233 228 225 225 232 246 253 248 237 232 235 250 253 244 257 253 227 227 238 246 252 246 236 233 230 225 220 220 222 225 227 228 229 232 234 235 236 239 240 239 239 239 235 234 237 242 245 248 255 263 263 260 258 255 254 254 253 255 263 265 258 246 235 228 225 227 232 236 237 238 239 237 236 237 239 241 242 244 246
237 263 256 244 250 234 220 218 215 216 219 235 255 252 236 240 232 226 238 259 247 261 266 238 225 227 234 245 243 239 237 233 227 221 219 220 223 226 227 230 231 231 232 236 236 236 235 237 237 234 234 236 242 247 249 253 260 261 260 258 253 253 255 254 257 264 262 251 238 229 225 222 226 232 234 235 237 237 237 238 239 241 243 243 243 244
241 270 269 260 255 235 218 214 212 211 214 229 248 249 242 245 223 217 220 232 209 153 287 265 237 223 224 231 238 239 236 227 220 221 223 223 225 225 225 228 231 230 232 234 232 232 234 235 236 235 234 237 241 246 248 249 251 252 256 257 252 252 252 251 256 260 255 244 231 225 222 221 226 232 232 232 234 236 237 238 239 241 242 241 240 239
230 254 280 277 248 212 204 207 211 212 209 222 240 249 251 252 241 221 214 217 218 172 257 282 260 228 227 229 234 238 232 219 213 220 225 226 226 225 226 226 229 232 234 232 230 232 235 235 236 234 233 237 241 246 247 246 245 246 252 254 251 248 246 248 254 254 245 235 226 221 219 220 227 231 230 230 233 235 237 238 238 240 240 239 236 235
234 235 261 272 258 256 233 206 206 209 208 222 236 241 242 237 244 252 228 221 219 182 179 238 270 269 240 230 234 234 222 213 218 230 235 230 225 224 225 225 227 230 232 231 231 233 233 233 235 235 234 238 242 245 247 245 242 245 249 248 247 246 244 248 254 248 236 227 222 220 218 220 227 231 229 229 231 233 236 236 236 238 238 237 234 233
237 234 252 264 267 273 248 192 198 210 214 226 230 234 240 227 226 248 247 227 220 216 229 221 262 270 242 211 231 230 220 221 232 241 247 241 228 222 223 225 227 229 230 230 230 230 230 231 233 236 237 238 240 242 244 242 242 246 247 244 243 242 243 249 251 242 230 223 221 220 218 220 228 231 230 230 231 233 235 235 235 237 238 236 233 233
240 241 251 259 266 273 239 174 188 207 218 227 217 224 239 230 226 230 234 281 249 255 266 259 276 257 226 194 217 221 225 251 259 252 251 249 234 225 224 226 229 231 230 228 227 228 228 229 232 236 237 238 239 240 241 242 244 247 246 243 240 239 243 248 246 236 226 221 220 220 217 220 228 231 231 231 232 233 235 235 235 236 237 236 233 232
237 238 246 260 273 278 206 181 194 210 224 226 215 222 230 223 226 228 237 304 299 283 282 283 295 254 226 212 222 214 234 291 296 269 253 242 231 227 227 228 229 230 230 229 229 230 230 228 230 234 237 238 238 239 240 243 246 246 243 241 239 238 244 246 239 229 221 218 220 219 217 221 228 231 232 233 234 235 235 235 234 236 236 235 233 232
237 233 239 267 298 309 170 186 202 216 229 229 225 235 237 233 234 229 243 288 273 262 281 243 268 255 232 222 234 227 252 283 289 275 252 235 226 227 229 228 226 226 227 227 230 232 228 227 230 235 237 236 235 237 241 244 244 242 240 238 236 238 242 241 233 223 217 218 220 218 217 222 227 230 233 235 236 236 236 235 234 235 235 235 233 232
246 242 233 231 251 152 165 196 210 216 223 229 235 243 242 242 239 230 244 277 248 264 288 260 259 261 249 247 253 251 276 285 284 273 248 234 229 232 234 231 225 225 228 228 230 229 225 226 232 235 234 232 235 240 243 242 238 235 235 234 234 237 239 234 227 219 215 218 220 218 219 223 227 231 234 236 238 237 236 235 233 233 235 235 233 231
267 265 256 241 237 227 158 171 205 216 221 222 228 239 236 230 229 228 239 259 265 293 284 263 263 272 273 277 276 277 291 292 294 284 248 233 233 236 238 233 226 227 230 231 230 228 226 228 231 232 231 233 240 245 243 237 231 228 229 230 233 235 233 229 223 217 216 220 221 220 221 224 228 232 235 237 238 236 234 234 232 232 235 235 233 230
286 295 305 309 274 249 204 129 171 199 213 222 223 227 229 225 224 226 231 247 270 292 273 260 265 281 289 301 298 291 293 293 300 296 251 232 232 236 232 226 225 228 229 227 224 223 225 228 229 231 231 234 241 243 235 227 223 223 227 231 232 230 226 224 221 217 217 221 222 222 224 226 230 234 236 237 237 234 232 232 231 231 232 234 233 230
279 293 303 328 346 316 205 150 150 174 192 211 213 208 221 227 227 226 227 243 261 264 263 266 282 292 293 298 295 290 293 295 303 301 256 234 232 235 230 224 229 235 233 227 223 221 223 226 229 231 233 237 240 232 221 218 218 222 226 229 228 225 222 223 220 218 219 221 222 224 226 229 233 235 237 237 237 235 232 230 230 231 232 234 234 230
270 285 294 307 359 2 328 178 160 162 172 193 201 197 204 216 220 225 229 242 258 265 268 276 290 294 290 285 285 286 288 294 302 300 267 242 235 233 229 227 234 243 240 230 225 225 224 226 230 231 233 236 232 219 213 215 219 221 223 224 223 221 221 221 220 219 221 222 223 226 228 231 234 237 238 239 239 237 233 229 230 231 232 234 234 231
245 282 301 298 334 350 322 233 181 161 176 193 200 206 207 204 212 223 231 243 259 269 275 281 286 289 282 273 276 278 280 288 293 295 279 251 237 232 229 233 242 245 240 229 225 225 226 228 230 229 228 227 219 212 213 217 219 220 221 221 221 221 221 221 220 221 223 224 225 227 230 233 236 239 241 241 241 239 235 231 230 231 232 233 234 232
223 289 307 296 305 322 313 293 274 157 176 187 190 206 213 209 210 215 225 243 258 268 278 285 286 286 281 273 274 274 277 282 287 294 289 257 241 235 233 239 245 241 234 231 228 226 227 230 231 224 217 214 212 213 216 216 217 218 219 220 221 222 223 223 223 224 225 226 227 229 232 235 239 242 243 243 243 240 236 232 230 231 231 232 233 232
235 308 312 304 301 313 331 331 327 155 165 176 181 199 210 211 211 210 220 238 251 261 272 283 290 294 295 289 281 277 279 279 276 282 289 254 243 240 238 243 248 240 233 232 231 228 224 225 225 218 212 211 213 215 216 216 217 217 219 223 225 226 227 227 226 227 228 228 229 231 234 237 241 244 245 245 244 240 236 232 230 230 231 231 233 232
9 311 308 308 304 317 340 351 80 143 149 172 198 212 208 207 209 212 220 230 239 248 259 273 286 291 288 288 287 294 308 295 270 254 147 72 94 231 235 239 240 235 229 225 220 218 216 214 214 211 209 210 213 213 213 214 216 217 219 223 227 229 230 229 229 230 231 232 233 235 237 240 242 244 245 245 244 240 236 232 230 230 230 230 231 231
336 322 318 313 303 312 339 9 82 112 328 319 4 16 179 184 188 203 211 217 228 240 254 271 277 272 266 273 289 310 321 304 266 231 131 56 64 127 162 193 212 215 214 211 209 208 208 209 210 209 207 207 209 209 211 214 216 218 220 223 228 231 231 231 231 232 234 235 237 238 239 241 243 244 245 244 242 240 236 232 229 230 230 230 231 231
319 325 320 311 306 315 339 3 22 330 324 38 15 19 39 80 76 176 196 210 228 236 251 266 262 251 252 253 267 292 289 299 284 241 211 47 49 75 105 106 153 197 204 209 213 212 213 214 213 211 210 212 214 214 216 218 220 222 223 225 230 233 234 233 233 234 236 237 239 239 240 242 243 244 245 243 242 240 235 230 228 228 229 230 230 229
299 309 311 310 315 325 334 336 330 340 89 77 13 12 12 8 23 171 191 205 227 235 245 253 243 241 254 255 262 274 272 292 298 243 192 63 45 36 136 122 117 162 191 205 214 216 221 225 225 222 219 220 223 223 225 226 224 224 225 227 231 234 235 236 235 236 238 239 240 240 241 242 243 243 244 243 242 239 234 229 227 228 229 229 229 228
290 300 310 311 314 322 329 337 339 351 83 26 5 7 2 348 345 262 206 201 217 229 236 236 226 232 248 252 258 259 256 280 281 213 175 72 54 51 209 174 134 133 161 174 188 204 213 218 224 225 224 228 234 235 236 234 227 225 226 227 231 234 235 237 237 238 239 241 242 243 243 244 244 243 243 243 242 239 233 228 226 226 228 229 229 228
297 299 302 297 304 319 326 332 336 311 344 344 349 357 354 334 294 265 244 215 216 222 220 204 206 227 237 242 251 247 240 262 265 225 206 357 46 49 109 172 159 131 141 156 163 175 191 197 207 218 222 228 235 233 232 231 227 227 229 230 232 235 236 240 241 242 243 244 245 245 245 245 245 244 244 242 239 235 230 228 227 228 231 230 230 231
342 315 303 301 308 319 321 314 310 310 312 320 331 340 339 318 229 226 253 223 216 222 220 156 171 213 233 238 242 239 232 246 259 252 247 279 326 331 307 164 167 165 149 160 175 185 202 206 212 224 225 229 232 231 232 234 233 235 236 236 236 237 239 243 245 246 246 245 246 246 245 245 246 246 246 242 234 228 227 229 232 239 241 238 237 239
2 340 325 327 331 334 331 321 313 311 309 313 327 334 328 275 204 209 223 248 234 233 254 1 103 181 228 241 241 240 236 242 251 255 255 261 277 287 281 248 221 206 197 205 214 227 243 241 244 249 242 239 241 242 244 244 244 245 245 244 242 241 243 246 247 247 247 245 245 246 245 245 246 247 245 236 224 221 225 228 234 241 244 245 247 246
0 351 340 341 347 346 334 322 311 310 313 320 330 339 337 231 240 225 225 251 262 249 266 322 12 115 194 247 247 245 247 250 250 248 247 254 265 270 270 276 265 236 227 234 235 238 249 255 261 263 260 258 258 258 261 261 260 259 256 254 251 248 247 247 247 246 246 244 244 245 244 244 246 246 241 226 212 215 223 228 235 241 246 251 253 247
352 350 341 339 342 337 329 324 315 316 324 329 335 344 350 309 274 240 225 242 271 271 258 268 11 77 85 285 268 253 251 253 252 248 246 250 259 267 271 274 265 244 236 238 240 243 249 253 259 265 268 271 271 273 277 279 279 276 270 266 262 255 249 246 245 244 243 242 242 243 244 245 245 240 228 212 205 213 222 229 238 245 251 254 250 243
353 355 344 335 334 325 312 311 315 319 326 333 338 339 337 330 291 257 249 238 250 260 260 278 23 46 359 303 301 282 261 251 248 250 250 254 264 275 278 278 273 253 238 235 237 240 244 248 254 261 266 270 275 278 280 282 283 282 281 277 268 255 247 243 240 239 240 241 240 240 243 244 240 231 220 214 218 222 223 227 236 243 248 250 244 240
360 6 355 339 330 318 304 305 315 323 330 337 340 338 339 341 303 271 276 262 252 254 264 296 331 349 331 310 292 286 279 263 251 241 237 249 266 276 277 277 277 265 244 236 236 238 242 247 249 254 259 265 272 276 279 282 284 284 285 281 270 258 249 243 238 236 238 241 241 240 241 238 229 223 221 225 233 234 227 225 232 237 240 244 243 240
4 4 355 345 340 336 328 327 333 336 336 337 342 346 349 355 343 274 272 255 265 261 263 283 286 288 302 299 283 277 275 269 260 234 217 231 249 264 274 275 276 275 263 251 246 244 247 253 254 257 262 268 274 278 281 284 285 284 284 283 279 273 264 254 246 239 238 244 248 241 231 223 216 214 216 222 235 240 230 223 229 233 234 239 244 243
5 359 355 355 358 358 353 351 349 343 340 344 348 349 350 351 344 331 184 201 236 252 262 276 275 276 280 275 271 274 266 258 257 242 228 233 237 248 262 266 273 283 282 274 269 264 260 261 262 264 268 270 274 278 282 286 287 287 285 284 284 282 275 263 254 245 239 248 254 240 220 210 209 211 212 218 232 238 228 221 228 232 233 237 242 242
360 359 4 9 11 7 0 357 356 351 348 350 351 349 352 354 355 16 74 126 237 244 246 250 249 261 268 256 253 264 263 254 252 247 241 245 246 248 255 257 262 273 277 275 272 269 267 269 270 272 274 274 275 277 280 284 285 285 285 285 284 281 274 263 255 246 239 247 252 236 215 207 208 211 214 217 224 228 225 224 230 234 235 240 242 242
356 357 1 2 5 5 360 358 0 0 359 359 359 357 359 356 349 1 30 24 340 245 234 232 220 233 262 220 204 236 251 246 242 242 242 245 246 246 250 255 258 261 265 269 270 269 272 277 280 281 279 278 278 277 278 280 280 280 284 287 281 270 258 249 243 238 235 241 238 222 213 213 212 214 219 219 219 222 224 226 232 236 238 238 238 236
352 351 346 348 360 3 358 356 359 359 359 2 6 8 7 1 351 347 345 344 352 240 215 223 162 170 214 84 113 142 182 207 218 229 236 239 242 243 244 248 252 255 262 271 273 274 278 282 284 284 282 281 280 277 276 276 274 274 284 290 279 258 237 229 228 225 223 229 225 213 212 217 214 211 216 217 216 219 223 226 231 233 231 230 231 230
344 339 336 349 5 3 356 355 358 358 359 1 2 5 7 3 360 357 336 329 352 38 137 113 64 68 63 56 67 79 85 92 117 196 231 236 241 243 243 247 252 256 261 267 270 273 278 282 282 281 279 279 278 276 274 272 266 264 274 283 274 253 230 223 226 221 212 214 221 218 215 214 207 207 213 215 215 218 223 225 226 227 227 227 228 229
Height
3056 3056 3056 3056 3056 3058 3060 3061 3061 3062 3063 3065 3066 3067 3067 3068 3068 3071 3075 3078 3082 3082 3082 3085 3083 3080 3086 3090 3094 3101 3103 3104 3107 3110 3112 3114 3117 3119 3121 3122 3123 3125 3129 3133 3135 3136 3139 3142 3144 3144 3144 3146 3147 3149 3151 3153 3154 3154 3155 3156 3157 3158 3158 3159 3159 3159 3160 3161 3161 3162 3162 3162 3163 3163 3163 3164 3164 3164 3164 3164 3165 3165 3166 3167 3168 3168
3054 3053 3053 3054 3056 3058 3059 3060 3061 3061 3062 3064 3065 3065 3065 3066 3066 3068 3072 3075 3079 3078 3077 3081 3079 3075 3081 3086 3090 3096 3098 3099 3102 3106 3108 3111 3113 3116 3118 3119 3121 3124 3126 3129 3131 3133 3136 3138 3140 3141 3142 3143 3144 3147 3149 3150 3152 3152 3153 3154 3155 3155 3155 3156 3157 3157 3158 3158 3159 3160 3160 3161 3161 3161 3161 3162 3162 3162 3162 3163 3163 3163 3164 3165 3166 3167
3053 3051 3051 3053 3055 3056 3057 3058 3059 3059 3060 3062 3062 3063 3063 3063 3065 3066 3068 3072 3076 3076 3074 3077 3074 3071 3077 3083 3085 3090 3093 3095 3098 3101 3104 3107 3110 3113 3115 3116 3119 3121 3123 3125 3127 3130 3133 3135 3137 3138 3139 3141 3142 3144 3146 3148 3149 3149 3151 3152 3152 3152 3153 3153 3154 3155 3155 3156 3157 3157 3158 3158 3159 3159 3159 3160 3160 3160 3161 3161 3161 3162 3162 3163 3164 3165
3050 3048 3050 3052 3054 3055 3055 3056 3057 3057 3058 3059 3060 3061 3060 3062 3064 3064 3066 3070 3073 3073 3072 3073 3070 3066 3072 3078 3080 3085 3089 3092 3095 3097 3101 3104 3106 3109 3112 3113 3115 3118 3119 3121 3124 3127 3130 3132 3133 3135 3137 3139 3140 3141 3143 3145 3146 3147 3149 3150 3150 3150 3150 3151 3152 3153 3153 3154 3154 3155 3155 3156 3157 3157 3157 3158 3158 3159 3159 3159 3160 3160 3161 3162 3162 3163
3048 3047 3049 3051 3052 3053 3053 3054 3055 3056 3056 3057 3058 3058 3057 3060 3063 3063 3065 3068 3070 3069 3069 3071 3067 3061 3066 3072 3075 3081 3085 3088 3091 3094 3096 3099 3102 3105 3108 3109 3111 3114 3116 3118 3121 3124 3126 3129 3130 3133 3134 3135 3137 3139 3140 3142 3144 3146 3147 3148 3148 3148 3148 3149 3150 3150 3151 3151 3152 3152 3153 3154 3155 3155 3155 3156 3157 3157 3157 3158 3158 3158 3159 3160 3161 3161
3045 3046 3048 3049 3050 3051 3051 3052 3053 3054 3055 3055 3055 3056 3057 3058 3061 3062 3064 3067 3068 3066 3066 3070 3065 3057 3061 3067 3069 3075 3079 3081 3085 3088 3091 3093 3097 3099 3102 3105 3106 3109 3112 3114 3117 3120 3123 3126 3128 3129 3130 3132 3134 3137 3138 3140 3141 3143 3145 3146 3146 3146 3146 3147 3148 3148 3148 3149 3150 3150 3151 3152 3153 3153 3154 3154 3155 3155 3155 3156 3156 3156 3157 3158 3159 3159
3042 3044 3047 3047 3048 3049 3050 3050 3051 3053 3054 3052 3053 3055 3056 3057 3059 3061 3063 3065 3065 3063 3063 3066 3064 3057 3059 3062 3065 3070 3074 3076 3080 3083 3086 3089 3091 3094 3097 3100 3102 3104 3107 3109 3112 3116 3119 3122 3124 3126 3127 3129 3132 3135 3136 3137 3139 3141 3142 3143 3144 3144 3144 3145 3145 3146 3146 3147 3148 3148 3149 3150 3151 3151 3152 3152 3152 3153 3153 3153 3154 3155 3156 3156 3157 3158
3040 3043 3045 3045 3046 3047 3048 3047 3049 3052 3052 3050 3051 3054 3055 3055 3057 3058 3061 3062 3062 3062 3059 3059 3061 3059 3057 3058 3061 3067 3070 3072 3075 3079 3082 3085 3087 3090 3093 3096 3097 3098 3102 3105 3108 3111 3115 3118 3120 3122 3125 3128 3131 3133 3134 3134 3136 3138 3140 3141 3141 3142 3142 3142 3143 3144 3144 3145 3146 3146 3147 3148 3148 3149 3150 3150 3150 3150 3150 3151 3152 3153 3154 3155 3155 3156
3039 3042 3043 3044 3045 3045 3045 3045 3047 3050 3050 3048 3051 3053 3053 3054 3055 3057 3060 3060 3060 3061 3056 3053 3058 3059 3054 3055 3059 3062 3065 3067 3070 3074 3078 3080 3082 3084 3087 3090 3092 3094 3098 3101 3104 3108 3111 3114 3117 3121 3123 3126 3129 3130 3131 3132 3134 3135 3137 3138 3138 3139 3140 3140 3141 3142 3142 3143 3144 3144 3145 3145 3146 3147 3147 3147 3148 3148 3148 3149 3150 3151 3152 3153 3154 3154
3038 3040 3041 3042 3042 3041 3041 3043 3045 3047 3047 3048 3049 3050 3051 3052 3053 3055 3057 3058 3058 3057 3053 3050 3054 3056 3052 3052 3055 3057 3059 3061 3065 3069 3071 3074 3077 3079 3082 3086 3088 3091 3094 3097 3101 3105 3108 3111 3115 3119 3122 3124 3126 3127 3128 3129 3130 3132 3133 3135 3135 3136 3137 3138 3139 3139 3140 3141 3141 3142 3142 3143 3143 3144 3145 3145 3145 3146 3147 3147 3148 3150 3151 3151 3152 3152
3036 3037 3038 3039 3038 3039 3040 3041 3043 3045 3046 3047 3047 3047 3048 3049 3051 3053 3053 3056 3055 3051 3049 3048 3049 3054 3051 3047 3050 3053 3054 3058 3061 3064 3066 3070 3074 3077 3079 3082 3085 3087 3090 3094 3098 3102 3106 3109 3113 3116 3118 3121 3123 3124 3124 3125 3127 3128 3130 3131 3132 3133 3134 3135 3136 3137 3138 3138 3138 3139 3140 3140 3141 3142 3143 3143 3143 3144 3145 3146 3147 3148 3149 3149 3150 3150
3034 3035 3034 3035 3036 3038 3038 3039 3040 3043 3044 3044 3044 3046 3047 3046 3048 3050 3050 3052 3051 3046 3045 3045 3047 3051 3047 3042 3046 3049 3051 3055 3058 3060 3064 3067 3071 3074 3076 3079 3081 3084 3087 3091 3095 3099 3103 3106 3109 3112 3114 3117 3119 3119 3120 3122 3124 3125 3126 3128 3129 3130 3131 3132 3133 3134 3135 3135 3136 3137 3137 3138 3139 3140 3141 3141 3142 3143 3143 3144 3145 3145 3147 3147 3148 3148
3030 3030 3031 3033 3034 3036 3037 3036 3037 3040 3041 3041 3042 3044 3046 3045 3045 3046 3046 3047 3046 3043 3042 3043 3045 3044 3040 3038 3043 3045 3046 3050 3053 3058 3062 3065 3068 3070 3073 3075 3078 3081 3084 3087 3091 3095 3099 3102 3105 3107 3110 3113 3114 3115 3117 3118 3120 3121 3123 3125 3126 3127 3128 3129 3131 3132 3132 3133 3134 3134 3135 3136 3137 3138 3139 3139 3140 3141 3141 3142 3142 3143 3144 3146 3146 3146
3025 3025 3027 3029 3030 3032 3033 3033 3033 3035 3037 3038 3039 3041 3043 3043 3043 3043 3043 3042 3042 3040 3038 3041 3043 3039 3035 3036 3038 3041 3043 3047 3050 3053 3058 3062 3065 3067 3070 3072 3074 3077 3080 3083 3087 3091 3094 3097 3101 3103 3106 3109 3111 3112 3113 3114 3116 3117 3119 3121 3123 3124 3125 3126 3128 3129 3129 3130 3131 3132 3132 3133 3135 3136 3137 3137 3138 3138 3139 3140 3140 3141 3142 3143 3144 3145
3023 3021 3021 3024 3026 3027 3028 3028 3028 3031 3034 3034 3037 3038 3038 3038 3039 3039 3038 3038 3039 3037 3036 3039 3039 3034 3032 3033 3035 3039 3042 3045 3048 3050 3053 3057 3060 3064 3067 3068 3070 3072 3076 3079 3083 3086 3090 3093 3097 3099 3102 3104 3107 3109 3109 3110 3112 3113 3115 3117 3120 3121 3122 3123 3125 3126 3127 3127 3128 3129 3130 3131 3133 3134 3134 3135 3136 3136 3137 3138 3139 3139 3140 3141 3142 3142
3022 3019 3019 3021 3023 3024 3024 3024 3027 3030 3031 3032 3034 3035 3034 3035 3036 3036 3035 3035 3035 3034 3033 3033 3032 3030 3031 3032 3035 3038 3039 3041 3045 3047 3050 3052 3055 3060 3062 3063 3065 3068 3071 3075 3078 3082 3086 3089 3092 3095 3097 3101 3103 3104 3105 3106 3108 3109 3111 3114 3116 3118 3119 3121 3122 3123 3124 3125 3125 3126 3127 3129 3130 3131 3132 3133 3134 3134 3135 3136 3137 3137 3138 3139 3140 3140
3020 3018 3019 3020 3021 3021 3022 3023 3025 3027 3029 3030 3031 3031 3031 3033 3035 3035 3034 3032 3033 3033 3031 3028 3028 3030 3031 3030 3031 3035 3036 3038 3041 3043 3047 3049 3051 3054 3056 3058 3061 3064 3067 3071 3074 3078 3082 3085 3088 3090 3093 3097 3099 3100 3102 3103 3104 3105 3107 3110 3113 3115 3116 3118 3119 3120 3121 3121 3122 3123 3125 3127 3128 3129 3130 3131 3132 3132 3133 3134 3134 3135 3136 3137 3137 3138
3018 3017 3017 3019 3019 3019 3021 3022 3024 3025 3027 3029 3028 3028 3029 3031 3032 3033 3033 3031 3032 3033 3030 3026 3026 3028 3028 3025 3027 3033 3035 3036 3039 3041 3044 3046 3048 3049 3050 3054 3057 3061 3065 3068 3071 3075 3078 3081 3083 3086 3090 3093 3095 3097 3098 3101 3102 3103 3104 3107 3110 3112 3113 3116 3117 3117 3118 3119 3120 3121 3123 3124 3126 3127 3128 3129 3129 3130 3131 3132 3132 3133 3133 3134 3136 3137
3018 3016 3015 3016 3017 3017 3019 3020 3021 3023 3025 3026 3026 3027 3028 3029 3029 3029 3030 3029 3029 3031 3028 3024 3023 3023 3022 3023 3026 3030 3032 3034 3036 3038 3040 3042 3044 3045 3047 3050 3054 3058 3061 3064 3067 3071 3074 3077 3079 3082 3086 3089 3091 3093 3095 3097 3099 3100 3101 3104 3107 3109 3111 3113 3113 3114 3115 3115 3117 3119 3121 3122 3123 3124 3125 3126 3127 3127 3128 3130 3130 3131 3131 3132 3134 3135
3017 3017 3014 3013 3015 3015 3015 3016 3018 3020 3023 3025 3025 3025 3026 3027 3026 3026 3025 3025 3026 3029 3029 3025 3022 3019 3018 3021 3025 3027 3030 3033 3034 3036 3038 3039 3040 3042 3044 3047 3050 3053 3056 3059 3063 3067 3070 3073 3076 3079 3082 3085 3087 3089 3091 3093 3094 3096 3099 3102 3105 3106 3107 3109 3109 3111 3111 3112 3114 3116 3118 3119 3120 3121 3123 3124 3125 3125 3126 3128 3128 3129 3129 3131 3132 3133
3016 3016 3013 3012 3013 3014 3013 3013 3015 3018 3021 3023 3023 3023 3023 3024 3025 3024 3023 3022 3023 3026 3027 3025 3022 3018 3017 3020 3023 3025 3028 3030 3031 3033 3035 3036 3037 3039 3041 3044 3047 3049 3052 3055 3060 3064 3067 3069 3072 3075 3078 3081 3082 3084 3087 3088 3090 3093 3096 3099 3101 3102 3103 3105 3106 3107 3108 3109 3111 3113 3115 3117 3118 3119 3120 3121 3122 3123 3124 3125 3126 3127 3128 3129 3130 3131
3015 3014 3013 3011 3011 3011 3010 3011 3014 3017 3019 3020 3020 3021 3022 3023 3024 3024 3022 3021 3022 3022 3022 3023 3021 3017 3015 3019 3022 3025 3028 3029 3029 3030 3030 3031 3034 3036 3039 3041 3043 3045 3048 3052 3057 3060 3063 3066 3069 3071 3074 3076 3078 3080 3082 3083 3086 3090 3093 3096 3097 3098 3100 3101 3103 3104 3105 3107 3109 3110 3113 3114 3115 3116 3118 3119 3120 3121 3122 3123 3124 3124 3125 3126 3127 3128
3014 3013 3012 3010 3008 3008 3008 3010 3012 3015 3017 3018 3018 3019 3020 3021 3022 3023 3022 3020 3021 3021 3020 3020 3019 3015 3013 3017 3020 3023 3025 3026 3027 3026 3025 3026 3029 3032 3036 3038 3040 3042 3044 3049 3053 3056 3059 3063 3065 3067 3069 3071 3074 3077 3078 3080 3083 3087 3090 3092 3093 3095 3096 3098 3099 3101 3102 3104 3106 3108 3110 3111 3112 3114 3115 3116 3117 3118 3120 3121 3121 3122 3123 3124 3125 3126
3011 3012 3011 3009 3007 3006 3007 3009 3012 3014 3015 3016 3016 3017 3018 3019 3020 3021 3021 3021 3021 3021 3019 3020 3019 3012 3010 3014 3016 3018 3019 3019 3021 3021 3019 3020 3022 3026 3030 3033 3036 3038 3041 3045 3049 3052 3057 3059 3060 3062 3064 3067 3070 3072 3074 3077 3080 3084 3086 3088 3090 3091 3093 3094 3096 3097 3099 3101 3103 3105 3107 3108 3109 3111 3112 3113 3114 3116 3117 3118 3119 3120 3121 3122 3122 3123
3009 3010 3010 3010 3008 3005 3006 3009 3011 3012 3012 3013 3014 3015 3016 3017 3018 3020 3020 3020 3020 3019 3019 3020 3016 3008 3008 3012 3013 3014 3014 3013 3015 3016 3014 3015 3017 3019 3022 3026 3031 3034 3037 3041 3045 3048 3052 3053 3055 3058 3060 3063 3066 3068 3070 3074 3077 3079 3082 3084 3086 3088 3089 3091 3093 3094 3096 3098 3100 3102 3104 3105 3107 3108 3109 3111 3112 3113 3115 3116 3117 3118 3118 3119 3120 3121
3008 3008 3009 3010 3009 3006 3006 3007 3008 3008 3010 3010 3011 3013 3014 3015 3017 3018 3019 3019 3018 3017 3017 3017 3012 3005 3006 3010 3010 3011 3011 3009 3010 3010 3011 3012 3013 3015 3017 3020 3025 3029 3033 3037 3040 3043 3047 3048 3051 3054 3056 3059 3062 3064 3067 3070 3072 3075 3078 3080 3082 3084 3086 3088 3089 3091 3093 3095 3097 3099 3101 3102 3104 3105 3107 3108 3110 3111 3112 3113 3114 3115 3116 3117 3118 3119
3008 3007 3007 3008 3007 3006 3005 3005 3006 3007 3008 3009 3009 3011 3012 3014 3015 3016 3018 3017 3016 3016 3014 3012 3010 3007 3006 3009 3009 3009 3010 3009 3008 3007 3007 3008 3010 3012 3014 3017 3020 3025 3029 3033 3036 3039 3042 3045 3048 3050 3053 3055 3057 3060 3064 3066 3069 3071 3074 3076 3079 3081 3083 3084 3086 3088 3090 3092 3094 3096 3098 3100 3101 3102 3104 3105 3107 3108 3109 3111 3112 3113 3114 3115 3115 3117
3008 3006 3006 3006 3006 3005 3004 3005 3006 3007 3007 3008 3009 3009 3010 3012 3013 3014 3015 3015 3015 3015 3010 3008 3011 3009 3006 3007 3009 3008 3008 3008 3007 3005 3003 3005 3008 3010 3012 3015 3018 3022 3025 3029 3032 3035 3038 3041 3044 3047 3049 3051 3054 3057 3060 3062 3065 3068 3071 3073 3076 3078 3079 3081 3083 3085 3087 3090 3092 3094 3096 3097 3098 3100 3101 3103 3104 3106 3107 3108 3109 3110 3111 3112 3113 3114
3008 3006 3005 3006 3005 3004 3004 3004 3004 3005 3006 3007 3008 3008 3009 3010 3010 3012 3013 3014 3014 3012 3009 3008 3010 3008 3005 3006 3007 3007 3007 3005 3003 3002 3001 3002 3005 3008 3010 3012 3015 3018 3022 3025 3028 3031 3034 3037 3040 3043 3045 3048 3051 3054 3056 3059 3062 3065 3067 3070 3072 3074 3076 3078 3080 3082 3085 3087 3089 3091 3093 3094 3095 3097 3098 3099 3101 3102 3103 3105 3106 3107 3108 3109 3110 3111
3008 3005 3005 3006 3006 3005 3004 3004 3004 3004 3005 3006 3007 3008 3008 3008 3008 3010 3011 3013 3013 3010 3009 3010 3009 3006 3005 3005 3005 3006 3005 3003 3002 3001 3000 3000 3002 3004 3007 3010 3012 3015 3019 3022 3025 3028 3031 3034 3037 3039 3042 3044 3048 3051 3053 3056 3059 3061 3064 3067 3069 3071 3073 3075 3077 3079 3082 3084 3087 3089 3090 3091 3092 3093 3094 3096 3098 3099 3101 3102 3103 3104 3105 3106 3107 3108
3008 3006 3006 3006 3006 3006 3005 3005 3004 3003 3004 3005 3006 3006 3007 3007 3007 3008 3009 3011 3011 3009 3009 3009 3007 3005 3004 3004 3005 3005 3004 3002 3001 3000 2998 2998 2999 3001 3004 3007 3010 3013 3016 3019 3023 3026 3028 3031 3033 3035 3038 3041 3045 3048 3051 3054 3056 3059 3062 3064 3066 3069 3070 3072 3074 3076 3079 3082 3084 3086 3087 3088 3089 3090 3091 3093 3094 3096 3097 3099 3100 3101 3102 3103 3104 3105
3008 3007 3007 3007 3007 3005 3004 3003 3001 3001 3003 3005 3005 3005 3005 3005 3005 3006 3007 3009 3010 3009 3008 3007 3005 3004 3004 3004 3004 3003 3001 3000 2999 2999 2997 2996 2997 2999 3002 3005 3008 3011 3014 3017 3020 3023 3026 3028 3030 3032 3035 3039 3043 3046 3049 3051 3054 3057 3060 3062 3064 3066 3068 3070 3072 3074 3076 3079 3081 3082 3084 3085 3086 3087 3088 3090 3091 3093 3094 3095 3096 3098 3099 3100 3101 3102
3008 3007 3007 3007 3006 3003 3002 3000 2998 2999 3002 3003 3003 3003 3003 3003 3003 3004 3005 3008 3009 3008 3006 3004 3003 3003 3003 3003 3002 3001 3000 2999 2999 2999 2997 2996 2996 2997 2999 3002 3005 3008 3011 3015 3018 3021 3023 3026 3028 3031 3034 3038 3041 3044 3047 3050 3052 3056 3058 3061 3063 3064 3065 3067 3069 3071 3073 3075 3077 3079 3080 3081 3083 3084 3085 3086 3088 3090 3091 3092 3093 3094 3096 3097 3098 3099
3008 3008 3007 3007 3005 3002 3001 2998 2997 2999 3001 3001 3001 3000 3000 3000 3001 3002 3004 3007 3007 3005 3005 3003 3002 3001 3001 3001 3000 3000 2999 2999 2999 2998 2997 2996 2995 2995 2997 2999 3002 3005 3009 3012 3015 3018 3021 3024 3027 3030 3033 3037 3040 3043 3045 3048 3051 3054 3056 3058 3060 3061 3062 3064 3066 3068 3070 3072 3073 3075 3076 3078 3079 3080 3082 3083 3084 3086 3087 3088 3090 3091 3093 3094 3094 3095
3009 3008 3007 3007 3005 3003 3001 3000 2999 3000 3000 3001 3000 2998 2997 2998 2999 3001 3003 3005 3004 3004 3004 3003 3001 2999 2999 2999 2998 2998 2998 2998 2998 2998 2997 2996 2996 2996 2997 2999 3001 3004 3008 3010 3013 3017 3020 3023 3026 3029 3032 3035 3038 3040 3043 3046 3049 3051 3053 3055 3057 3058 3059 3061 3063 3064 3066 3068 3069 3070 3072 3073 3075 3076 3078 3079 3081 3082 3083 3085 3086 3088 3089 3090 3091 3093
3009 3008 3007 3007 3006 3004 3003 3002 3002 3001 3000 3001 3001 2998 2996 2997 2998 2999 3000 3001 3001 3003 3003 3002 3000 2999 2998 2997 2997 2996 2996 2997 2997 2997 2997 2997 2996 2998 2999 2999 3000 3003 3007 3010 3012 3016 3019 3022 3025 3028 3031 3033 3035 3038 3041 3044 3046 3048 3050 3052 3054 3055 3056 3057 3059 3061 3062 3064 3065 3066 3067 3069 3071 3072 3074 3075 3077 3078 3080 3081 3082 3084 3086 3088 3089 3090
3009 3008 3008 3007 3006 3005 3004 3002 3001 3000 3000 3001 3001 2999 2997 2997 2996 2996 2997 2997 2999 3001 3002 3001 2999 2998 2998 2997 2996 2995 2996 2996 2996 2997 2998 2997 2997 2999 3001 3001 3002 3003 3006 3009 3012 3014 3017 3021 3024 3027 3030 3032 3034 3037 3039 3041 3044 3046 3047 3049 3050 3052 3053 3054 3055 3057 3058 3059 3060 3062 3063 3065 3067 3068 3070 3071 3073 3075 3076 3078 3079 3082 3083 3085 3086 3087
3009 3008 3008 3008 3007 3006 3004 3002 3001 3000 3000 3000 3000 2998 2997 2996 2995 2994 2995 2995 2996 2999 3000 2999 2998 2998 2998 2997 2996 2995 2996 2996 2996 2997 2999 2999 2999 3000 3002 3003 3004 3004 3006 3008 3010 3013 3015 3018 3021 3025 3028 3030 3032 3035 3037 3039 3041 3043 3044 3045 3047 3048 3049 3050 3052 3053 3055 3056 3057 3058 3060 3061 3063 3065 3066 3068 3070 3071 3073 3075 3077 3079 3080 3082 3083 3083
3008 3008 3008 3008 3007 3006 3005 3003 3002 3001 3000 2999 2999 2998 2997 2995 2994 2994 2994 2994 2996 2997 2997 2996 2996 2997 2997 2997 2996 2996 2997 2998 2998 2998 2998 2999 2999 3000 3002 3003 3004 3005 3006 3007 3010 3013 3015 3017 3019 3022 3025 3027 3029 3032 3034 3036 3037 3039 3040 3042 3043 3044 3045 3047 3049 3050 3051 3052 3053 3055 3056 3058 3059 3061 3062 3064 3067 3069 3070 3072 3075 3077 3078 3079 3080 3079
3008 3008 3008 3008 3007 3006 3005 3004 3002 3001 3000 2998 2998 2997 2996 2995 2994 2993 2994 2995 2996 2996 2994 2992 2993 2995 2996 2996 2996 2996 2996 2997 2998 2998 2997 2998 2998 3000 3001 3003 3004 3005 3006 3008 3010 3013 3015 3017 3019 3021 3023 3025 3027 3030 3031 3033 3034 3036 3037 3039 3040 3040 3042 3044 3046 3047 3048 3049 3050 3051 3053 3054 3056 3057 3058 3060 3063 3066 3067 3069 3074 3076 3076 3076 3077 3077
3009 3008 3008 3007 3006 3005 3004 3003 3002 3000 2998 2998 2997 2995 2994 2994 2993 2992 2993 2994 2994 2995 2993 2990 2990 2992 2994 2994 2994 2995 2996 2996 2997 2998 2998 2998 2998 2999 3001 3003 3004 3005 3006 3008 3011 3013 3014 3015 3018 3020 3022 3024 3026 3027 3029 3030 3032 3033 3034 3035 3036 3037 3039 3041 3042 3043 3044 3045 3045 3046 3048 3050 3052 3052 3053 3056 3060 3062 3063 3066 3070 3071 3071 3072 3075 3076
3009 3009 3008 3007 3006 3005 3004 3003 3001 2998 2997 2996 2995 2994 2993 2992 2991 2991 2991 2992 2992 2993 2992 2990 2988 2989 2991 2992 2992 2994 2995 2995 2996 2998 2999 2999 3000 3001 3002 3004 3005 3006 3007 3008 3010 3011 3012 3014 3016 3018 3020 3022 3023 3025 3026 3028 3029 3030 3031 3031 3033 3035 3037 3037 3037 3038 3039 3040 3041 3043 3044 3046 3047 3048 3049 3052 3056 3059 3061 3063 3066 3067 3068 3070 3072 3073
3011 3010 3008 3007 3006 3005 3003 3002 3000 2998 2996 2994 2993 2992 2992 2991 2989 2988 2989 2990 2991 2991 2991 2989 2986 2986 2988 2990 2991 2992 2993 2994 2996 2997 2999 3000 3001 3001 3003 3004 3005 3006 3007 3007 3009 3010 3011 3013 3015 3017 3018 3020 3021 3022 3024 3024 3026 3027 3027 3028 3030 3032 3032 3032 3032 3033 3034 3035 3037 3039 3040 3041 3043 3045 3045 3048 3052 3057 3060 3062 3063 3065 3066 3067 3068 3069
3012 3011 3009 3008 3007 3005 3003 3002 3000 2998 2996 2993 2991 2991 2990 2988 2987 2986 2987 2988 2989 2990 2989 2986 2984 2984 2987 2989 2990 2991 2992 2993 2994 2995 2997 2999 3000 3000 3001 3002 3003 3004 3005 3006 3008 3009 3010 3012 3013 3015 3016 3017 3018 3019 3020 3021 3022 3023 3024 3025 3027 3027 3026 3026 3026 3027 3028 3030 3032 3034 3035 3037 3040 3041 3042 3044 3049 3053 3057 3059 3061 3062 3063 3063 3064 3065
3013 3012 3010 3009 3007 3005 3003 3001 2999 2997 2995 2993 2991 2989 2987 2986 2985 2986 2986 2987 2987 2987 2986 2986 2985 2984 2986 2988 2990 2991 2991 2992 2993 2993 2995 2997 2998 3000 3000 3001 3002 3003 3004 3005 3006 3008 3009 3010 3011 3012 3014 3014 3015 3016 3016 3017 3018 3019 3020 3020 3020 3021 3021 3020 3020 3021 3023 3025 3027 3029 3031 3034 3036 3037 3039 3043 3045 3048 3053 3056 3057 3058 3059 3060 3061 3062
3014 3012 3010 3008 3006 3003 3001 2999 2998 2996 2994 2992 2990 2988 2986 2985 2985 2985 2985 2986 2985 2984 2985 2986 2986 2985 2985 2987 2989 2990 2990 2991 2992 2992 2994 2995 2997 2999 3000 3000 3001 3002 3003 3004 3005 3006 3007 3009 3009 3010 3011 3012 3012 3012 3013 3013 3013 3014 3015 3015 3014 3016 3017 3016 3017 3020 3022 3023 3024 3025 3027 3030 3032 3033 3037 3041 3043 3046 3050 3053 3054 3055 3056 3056 3057 3058
3013 3012 3010 3008 3005 3003 3001 2999 2997 2995 2993 2991 2989 2988 2986 2985 2985 2985 2984 2984 2984 2984 2984 2985 2985 2985 2985 2985 2986 2988 2989 2990 2991 2991 2993 2994 2995 2997 2998 2999 3000 3001 3002 3003 3003 3004 3005 3007 3007 3008 3008 3008 3009 3009 3009 3009 3009 3009 3010 3009 3009 3010 3012 3014 3016 3019 3021 3022 3023 3023 3025 3027 3029 3031 3034 3038 3041 3044 3048 3049 3049 3051 3052 3053 3054 3056
3014 3013 3011 3009 3007 3004 3002 3000 2998 2995 2993 2991 2989 2988 2987 2985 2985 2985 2984 2984 2984 2984 2985 2985 2985 2986 2986 2984 2984 2985 2986 2988 2989 2990 2992 2993 2994 2995 2996 2997 2998 2999 3000 3001 3002 3002 3003 3004 3004 3005 3005 3005 3005 3006 3005 3005 3005 3004 3004 3004 3004 3005 3008 3011 3014 3017 3019 3021 3022 3022 3024 3025 3027 3029 3032 3035 3038 3041 3044 3046 3046 3048 3049 3050 3052 3053
3016 3014 3012 3010 3008 3006 3003 3000 2998 2996 2994 2992 2990 2988 2987 2986 2985 2985 2984 2984 2984 2984 2985 2986 2986 2987 2987 2985 2983 2983 2984 2985 2987 2989 2990 2991 2992 2993 2994 2995 2996 2997 2998 2999 2999 3000 3000 3001 3001 3001 3001 3001 3002 3002 3002 3002 3001 3000 3000 3000 3001 3002 3005 3008 3010 3013 3016 3019 3020 3021 3023 3024 3026 3028 3030 3033 3036 3039 3041 3043 3044 3045 3047 3048 3049 3050
3015 3013 3012 3010 3008 3006 3004 3001 2999 2996 2994 2993 2991 2989 2988 2986 2985 2984 2983 2984 2984 2984 2985 2985 2984 2985 2986 2985 2983 2982 2982 2983 2985 2986 2988 2989 2991 2992 2993 2994 2994 2995 2995 2996 2996 2996 2997 2997 2997 2997 2997 2997 2998 2998 2998 2998 2997 2997 2996 2997 2998 3000 3002 3003 3005 3008 3013 3016 3018 3019 3022 3023 3024 3026 3029 3031 3033 3036 3038 3040 3042 3043 3044 3045 3046 3047
3016 3014 3012 3011 3009 3006 3005 3003 3001 2998 2996 2994 2992 2990 2989 2987 2985 2984 2983 2984 2984 2983 2984 2984 2983 2983 2983 2982 2981 2981 2981 2982 2983 2984 2985 2986 2988 2989 2990 2991 2992 2993 2993 2993 2993 2993 2993 2994 2994 2994 2994 2994 2994 2994 2994 2994 2994 2993 2993 2994 2996 2997 2999 3001 3002 3006 3011 3015 3017 3019 3021 3022 3023 3025 3027 3029 3031 3034 3036 3038 3039 3040 3042 3043 3044 3045